Location: Karcze
(52.0945°N, 22.4786°E)
Time: 02:11:17
(UTC+00:00)

A-11 Canister half - Pass Details

Date: 10 August 2021
Orbit: 1514 x 1685 km, 47.2° (Epoch: 16 September)

Event Time Altitude Azimuth Distance (km) Brightness Sun altitude
Rises 11:24:56 0° 191° (S) 4,698 12.1 52.0°
Reaches altitude 10° 11:28:53 10° 176° (S) 3,744 11.8 51.8°
Maximum altitude 11:35:29 22° 131° (SE) 2,981 11.0 51.4°
Drops below altitude 10° 11:42:13 10° 87° (E) 3,851 11.0 51.0°
Sets 11:46:19 0° 73° (ENE) 4,869 11.4 50.7°
